Terminal Aerodrome Forecast
Issued by NWS St Louis, MO

Home | Current Version | Previous Version | Text Only | Print | Product List | Glossary On
Versions: 1 2 3 4 5 6 7 8 9 10 11 12 13 14 15 16 17 18 19 20 21 22 23 24 25 26
923
FTUS43 KLSX 260915 AAB
TAFCOU
TAF AMD
KCOU 260915Z 2609/2706 27007KT 3SM BR OVC004
      TEMPO 2609/2612 1 1/2SM BR
     FM261500 26008KT P6SM OVC010
     FM262100 26008KT P6SM BKN020
     FM270000 VRB04KT P6SM BKN035=

USA.gov is the U.S. government's official web portal to all federal, state and local government web resources and services.